Regional Weather Roundup
Issued by NWS

Home | Current Version | Previous Version | Text Only | Print | Product List | Glossary Off
Versions: 1 2 3 4 5 6 7 8 9 10 11 12 13 14 15 16 17 18 19 20 21 22 23 24 25 26 27 28 29 30 31 32 33 34 35 36 37 38 39 40 41 42 43 44 45 46 47 48 49 50

000
ASUS43 KMKX 232011
RWRWI

WISCONSIN REGIONAL WEATHER ROUNDUP
NATIONAL WEATHER SERVICE MILWAUKEE/SULLIVAN WI
300 PM CDT SUN JUL 23 2017

NOTE: "FAIR" INDICATES FEW OR NO CLOUDS BELOW 12,000 FEET WITH NO
SIGNIFICANT WEATHER AND/OR OBSTRUCTIONS TO VISIBILITY.

WIZ001-002-006>008-014>016-023>028-232100-
NORTHWEST WISCONSIN

CITY           SKY/WX    TMP DP  RH WIND       PRES   REMARKS
SUPERIOR ARPT  NOT AVBL
ASHLAND        CLOUDY    61  59  93 NE9       29.99R
HAYWARD        CLOUDY    63  57  81 N10       29.98R
SIREN          CLOUDY    68  56  65 NE12      29.98R
CUMBERLAND     CLOUDY    64  55  72 N12       29.97R
RICE LAKE      CLOUDY    65  57  74 N9        29.97R
CHETEK         CLOUDY    67  59  75 N12G18    29.95R
LADYSMITH      CLOUDY    68  58  72 N12       29.95S
EAU CLAIRE     PTSUNNY   72  58  61 N10G18    29.91R
MENOMONIE      PTSUNNY   71  59  65 NW12G20   29.93R
NEW RICHMOND   PTSUNNY   72  57  59 NE13      29.95R
OSCEOLA        MOSUNNY   73  57  56 N7G18     29.98R
$$

WIZ003>005-009-010-017-018-232100-
NORTH CENTRAL WISCONSIN

CITY           SKY/WX    TMP DP  RH WIND       PRES   REMARKS
MANITOWISH WTR CLOUDY    61  61 100 N7        29.94R
ARBOR VITAE    CLOUDY    62  58  88 N12       29.93R
WOODRUFF       CLOUDY    62  58  88 N12       29.93R
RHINELANDER    PTSUNNY   69  60  73 N13       29.91R
EAGLE RIVER    CLOUDY    64  58  83 N10       29.92R
LAND O LAKES   CLOUDY    61  58  90 N10       29.95R
PHILLIPS       CLOUDY    63  60  89 N6        29.93R
TOMAHAWK         N/A     67  59  73 NW10      29.91S
MEDFORD        PTSUNNY   71  58  65 N9G18     29.89S
MERRILL        MOSUNNY   74  60  63 N14       29.88R
$$

WIZ029-030-035-036-043>047-232100-
CENTRAL WISCONSIN

CITY           SKY/WX    TMP DP  RH WIND       PRES   REMARKS
WAUSAU         MOSUNNY   78  58  49 N13G18    29.83S
MOSINEE        MOSUNNY   79  59  50 NW13G18   29.85S HX  80
MARSHFIELD     SUNNY     78  57  48 N15G22    29.85S
STEVENS POINT  PTSUNNY   78  57  48 NW10G18   29.83S
WAUPACA        PTSUNNY   83  57  41 NW17      29.81R HX  83
WAUTOMA        SUNNY     82  60  47 NW12      29.81S HX  82
WISC RAPIDS    PTSUNNY   81  58  45 NW12      29.84S HX  81
CAMP DOUGLAS   PTSUNNY   79  63  57 W9        29.84S HX  80
$$

WIZ011>013-019>022-031-037>040-048>050-232100-
NORTHEAST WISCONSIN

CITY           SKY/WX    TMP DP  RH WIND       PRES   REMARKS
ANTIGO         MOSUNNY   74  60  60 N13G18    29.86R
SHAWANO        CLOUDY    77  66  67 NW5       29.80S
OCONTO         MOSUNNY   76  68  76 E5        29.79R
STURGEON BAY     N/A     76  65  68 N10       29.80S
GREEN BAY      CLOUDY    76  69  79 MISG      29.79S
MANITOWOC      LGT RAIN  76  60  57 NW10      29.80S
APPLETON       PTSUNNY   72  63  73 N9        29.79S
CLINTONVILLE   MOSUNNY   79  59  50 N8        29.80S HX  80
OSHKOSH        SUNNY     82  61  48 W10       29.79S HX  83
$$

WIZ032>034-041-042-053>061-232100-
SOUTHWEST WISCONSIN

CITY           SKY/WX    TMP DP  RH WIND       PRES   REMARKS
LA CROSSE      PTSUNNY   81  63  54 N16       29.86R HX  82
SPARTA         MOSUNNY   78  57  47 NW15G21   29.86S
VIROQUA        MOSUNNY   78  62  58 NW14G21   29.88S
BOSCOBEL       PTSUNNY   82  63  52 NW13      29.84R HX  83
PRAIRIE DU CHI MOSUNNY   81  58  46 NW13G18   29.84S HX  81
PLATTEVILLE    MOSUNNY   82  66  59 NW12G20   29.84R HX  84
$$

WIZ056-057-062-063-064-067-068-232100-
SOUTH CENTRAL WISCONSIN

CITY           SKY/WX    TMP DP  RH WIND       PRES   REMARKS
REEDSBURG      MOSUNNY   80  61  52 NW8       29.83S HX  81
BARABOO/DELLS  MOSUNNY   82  57  42 N9        29.83S HX  81
LONE ROCK      MOSUNNY   81  62  52 N13G21    29.82S HX  82
MINERAL POINT  MOSUNNY   82  63  51 NW12G18   29.84R HX  83
MADISON        MOSUNNY   82  61  48 N14       29.81R HX  83
MIDDLETON      MOSUNNY   83  62  49 N8        29.82F HX  83
WATERTOWN      MOSUNNY   80  66  61 N7        29.81S HX  82
MONROE         PTSUNNY   81  66  61 N13G23    29.80S HX  83
JANESVILLE     LGT RAIN  75  70  83 N8        29.79R
$$

WIZ051-052-058>065-066-070>072-232100-
SOUTHEAST WISCONSIN

CITY           SKY/WX    TMP DP  RH WIND       PRES   REMARKS
MILWAUKEE      PTSUNNY   82  67  60 NW6       29.79S HX  84
WAUKESHA       MOSUNNY   79  57  47 NW9       29.82S HX  80
MILWAUKEE/TIMM PTSUNNY   81  57  44 NW7       29.81S HX  81
RACINE         CLOUDY    75  70  84 N5        29.81R
KENOSHA        CLOUDY    77  64  64 W6G20     29.80R
FOND DU LAC    CLOUDY    81  60  48 NW9       29.80S HX  82
SHEBOYGAN      MOSUNNY   82  65  56 W10       29.79S HX  84
WEST BEND      CLOUDY    79  61  53 W8        29.80F HX  80
JUNEAU         MOSUNNY   80  62  53 W3        29.82S HX  81
$$

LSZ147-162-232100-
LAKE SUPERIOR

STATION/POSITION TIME  TEMP    WIND        PRES    WAVE
                       AIR SEA DIR/SP/G            HT/PER
                 (UTC) (F)     (DEG/KT/KT) (MB)    (FT/S)
W MID LAKE BUOY  1950   51 48   30/  8/ 10 1015.3R   2/ 4
DEVILS ISLAND    2000   57      60/  7/  8 1015.8R
SAXON HARBOR     1930   59      20/  8/ 10 1014.6R
$$

LMZ867-665-643>646-232100-
LAKE MICHIGAN

STATION/POSITION TIME  TEMP    WIND        PRES    WAVE
                       AIR SEA DIR/SP/G            HT/PER
                 (UTC) (F)     (DEG/KT/KT) (MB)    (FT/S)
CHAMBERS ISLAND  1940   69      20/ 16/ 19 1008.5S
S GREEN BAY BUOY 2000   72 77  100/  6/ 10 1008.8
N MID LAKE BUOY  1950   66 67  330/ 14/ 16 1009.1R   2/ 3
NORTHPORT PIER   1940   67     360/ 19/ 22 1009.1S
KEWAUNEE LAKESHO 1948   73      70/  3/  5 1008.3R
SHEBOYGAN LAKESH 2000   69      60/ 12/ 13 1008.3R
PORT WASHINGTON  1940   81     300/  7/ 10 1009.5S
ATWATER BUOY     1939   75 70  310/  6/  6 1009.0R
MILWAUKEE LAKESH 1950   80     320/  7/  9   N/A
S MID LAKE BUOY  1950   74 72  280/  4/  4 1008.7R   1
KENOSHA   LAKESH 2000   80     350/  4/  9 1008.8
$$

TC  - TEMPERATURE IN CELSIUS
VSB - VISIBILITY IN STATUTE MILES
WCI - WIND CHILL INDEX
HX  - HEAT INDEX




USA.gov is the U.S. government's official web portal to all federal, state and local government web resources and services.